Regional Weather Roundup
Issued by NWS Green Bay, WI

Home | Current Version | Previous Version | Text Only | Print | Product List | Glossary On
Versions: 1 2 3 4 5 6 7 8 9 10 11 12 13 14 15 16 17 18 19 20 21 22 23 24 25 26 27 28 29 30 31 32 33 34 35 36 37 38 39 40 41 42 43 44 45 46 47 48 49 50
581
ASUS43 KGRB 220911
RWRGRB

NORTH-CENTRAL AND NORTHEAST WISCONSIN REGIONAL WEATHER ROUNDUP
NATIONAL WEATHER SERVICE GREEN BAY WI
400 AM CDT SUN OCT 22 2017

WIZ005-009-010>012-018-019-221000-
NORTH CENTRAL WISCONSIN

CITY           SKY/WX    TMP DP  RH WIND       PRES   REMARKS
IRONWOOD       LGT RAIN  55  52  89 W13       29.75S
MANITOWISH WTR LGT RAIN  58  58 100 S12       29.75S
ARBOR VITAE    DRIZZLE   62  60  94 S9G21     29.77F
EAGLE RIVER    NOT AVBL
LAND O LAKES   MOCLDY    59  58  97 S6        29.79F
RHINELANDER    CLOUDY    60  60 100 S10G20    29.81F
PHILLIPS       DRIZZLE   51  51 100 SW8       29.81R
ANTIGO         CLOUDY    59  58  98 SW8       29.84F
TOMAHAWK       DRIZZLE   59  58  96 S3        29.80F
MERRILL        CLOUDY    60  60 100 S7        29.82F
$$

WIZ013-073-221000-
NORTHEAST WISCONSIN

CITY           SKY/WX    TMP DP  RH WIND       PRES   REMARKS
IRON MOUNTAIN  PTCLDY    62  55  77 S10       29.82F
MARINETTE      PTCLDY    61  56  83 S8        29.88F
OCONTO         CLOUDY    63  57  81 S8        29.86F
$$

WIZ017-030-035>037-045-221000-
CENTRAL WISCONSIN

CITY           SKY/WX    TMP DP  RH WIND       PRES   REMARKS
MEDFORD        LGT RAIN  51  50  95 W9        29.83R
WAUSAU         CLOUDY    60  58  92 S12       29.81F
MOSINEE        CLOUDY    59  59 100 S8        29.84F
MARSHFIELD     LGT RAIN  54  50  86 W12G22    29.83S
WISC RAPIDS    CLOUDY    60  59  96 SW6       29.85S
STEVENS POINT  CLOUDY    59  59  99 S5        29.84F
WAUPACA        PTCLDY    66  59  79 S5        29.85S
SHAWANO        PTCLDY    66  58  75 S5        29.84F
CLINTONVILLE   MOCLDY    66  57  72 S8        29.84F
WAUTOMA        CLOUDY   N/A N/A N/A CALM      29.85F
$$

WIZ038-039-048-051-221000-
FOX VALLEY

CITY           SKY/WX    TMP DP  RH WIND       PRES   REMARKS
NWS GREEN BAY  CLOUDY    66  59  78 S10       29.88S
APPLETON       CLOUDY    64  54  68 S12       29.86F
OSHKOSH        CLOUDY    67  58  72 S14       29.87S
FOND DU LAC    CLOUDY    68  55  63 S12G20    29.88S
$$

WIZ022-050-052-221000-
EAST CENTRAL WISCONSIN

CITY           SKY/WX    TMP DP  RH WIND       PRES   REMARKS
EPHRAIM        CLOUDY    60  55  84 S14G28    29.89F
WASHINGTON ISL NOT AVBL
STURGEON BAY   CLOUDY    59  55  87 S18       29.88F
MANITOWOC      CLOUDY    59  54  83 S13       29.91F
SHEBOYGAN      MOCLDY    61  57  87 S8        29.91F
$$

LMZ563-521-522-541>543-221000-
LAKESHORE

STATION/POSITION TIME  TEMP    WIND        PRES    VSBY  WAVE
                       AIR SEA DIR/SP/G                  HT/PER
                 (UTC) (F)     (DEG/KT/KT) (MB)    (MI)  (FT/S)
SHEBOYGAN LKSHOR 0900   56     180/ 18/ 18 1012.7F
KEWAUNEE LKSHORE 0848   54     180/ 12/ 14 1012.0F
NORTHPORT PIER   0900   60     160/ 11/ 21 1011.9
N MID LAKE BUOY  0850   63 58  180/ 21/ 25 1013.1F         7/ 7
S GREEN BAY BUOY 0830   62 58  180/ 14/ 16 1011.5F
SISTER BAY LKSHO 0904   61     190/ 18/ 24   N/A
MENOMINEE LKSHOR 0848   60     150/ 13/ 16 1011.2F
$$




USA.gov is the U.S. government's official web portal to all federal, state and local government web resources and services.